Location: White Mills Observatory
(37.5374°N, 86.0303°W)
Time: 18:14:18
(UTC-04:00)

Hubble Space Telescope - Visible Passes

Search period start: 28 June 2016 00:00
Search period end: 08 July 2016 00:00
Orbit: 539 x 543 km, 28.5° (Epoch: 27 June)

Date Brightness Start Highest point End Pass type
(mag) Time Alt. Az. Time Alt. Az. Time Alt. Az.
30 Jun 2.8 23:02:34 10° SW 23:03:43 15° SSW 23:03:43 15° SSW visible
01 Jul 2.3 22:52:40 10° SW 22:54:58 20° SSW 22:54:58 20° SSW visible
02 Jul 2.1 22:42:49 10° SW 22:46:01 23° S 22:46:01 23° S visible
03 Jul 2.0 22:33:01 10° SW 22:36:19 23° S 22:36:56 22° SSE visible
04 Jul 2.1 22:23:15 10° SW 22:26:32 23° S 22:27:45 20° SSE visible
05 Jul 2.2 22:13:30 10° WSW 22:16:45 22° S 22:18:29 17° SSE visible
06 Jul 2.3 22:03:48 10° WSW 22:06:58 21° S 22:09:11 14° SSE visible
07 Jul 2.4 21:54:09 10° WSW 21:57:10 20° S 21:59:51 11° SE visible
